BA319 EDDM-KJFK

Flight info

Callsign BA319
Flight time N/A
Altitude 36000
Route GIVMI6Q/08L GIVMI Y101 INBED DCT REKDI DCT LOHRE DCT BUB L608 DENUT L610 KOPUL Q60 OKSAW DCT BIBPE DCT FELCA DCT OFSOX DCT SLANY DCT OLGON DCT NEBIN/M081F380 NATB BUDAR/N0459F380 DCT ALLEX DCT PLYMM PARCH4
Aircraft A333/H-SDE3GHIJ2J3J5M1RVWXY/LB2D1

Departure

Time 2026-05-01 08:00
Airport Munich Airport (EDDM)

Arrival

Time N/A
Airport John F. Kennedy International Airport (KJFK)
Time Latitude Longitude Altitude Speed Heading
2026-05-01 07:37 48.35587 11.79291 1460 ft 0 kts 263°
2026-05-01 07:47 48.35588 11.79306 1471 ft 3 kts 285°
2026-05-01 07:47 48.35582 11.79332 1468 ft 3 kts 287°
2026-05-01 07:47 48.35577 11.79359 1461 ft 3 kts 287°
2026-05-01 07:48 48.35574 11.79416 1460 ft 3 kts 282°
2026-05-01 07:48 48.35565 11.79443 1459 ft 3 kts 330°
2026-05-01 07:48 48.35546 11.79452 1459 ft 3 kts 355°
2026-05-01 07:49 48.35543 11.79452 1460 ft 0 kts 355°
2026-05-01 07:52 48.35565 11.79449 1459 ft 6 kts 355°
2026-05-01 07:52 48.35623 11.79442 1462 ft 11 kts 355°
2026-05-01 07:52 48.35658 11.79437 1464 ft 0 kts 355°
2026-05-01 07:53 48.35737 11.79411 1466 ft 16 kts 345°
2026-05-01 07:53 48.35842 11.79385 1462 ft 15 kts 352°
2026-05-01 07:54 48.35895 11.79368 1461 ft 0 kts 345°
2026-05-01 07:55 48.35898 11.79367 1461 ft 0 kts 345°
2026-05-01 07:55 48.35946 11.79348 1462 ft 23 kts 346°
2026-05-01 07:56 48.36043 11.78677 1471 ft 51 kts 262°
2026-05-01 07:56 48.35964 11.77644 1468 ft 49 kts 261°
2026-05-01 07:57 48.35946 11.77423 1463 ft 9 kts 265°
2026-05-01 07:57 48.35935 11.77247 1462 ft 10 kts 256°
2026-05-01 07:58 48.35936 11.76928 1459 ft 17 kts 305°
2026-05-01 07:58 48.36165 11.76797 1470 ft 18 kts
2026-05-01 07:59 48.36297 11.77022 1468 ft 19 kts 83°
2026-05-01 07:59 48.36421 11.78635 1463 ft 133 kts 83°
2026-05-01 08:00 48.37530 11.86394 3658 ft 226 kts 53°
2026-05-01 08:01 48.42388 11.86042 5844 ft 281 kts 320°
2026-05-01 08:01 48.43721 11.83852 6577 ft 285 kts 313°
2026-05-01 08:01 48.44977 11.81523 6930 ft 287 kts 312°
2026-05-01 08:02 48.47519 11.76854 7020 ft 288 kts 313°
2026-05-01 08:02 48.48813 11.74534 7013 ft 289 kts 314°
2026-05-01 08:03 48.51404 11.69926 7013 ft 290 kts 314°
2026-05-01 08:03 48.52709 11.67617 7016 ft 289 kts 313°
2026-05-01 08:03 48.55317 11.63014 7137 ft 288 kts 314°
2026-05-01 08:04 48.57954 11.58340 8665 ft 292 kts 314°
2026-05-01 08:04 48.60609 11.53613 10462 ft 302 kts 313°
2026-05-01 08:05 48.62713 11.47586 11142 ft 349 kts 286°
2026-05-01 08:05 48.62984 11.43890 11786 ft 359 kts 270°
2026-05-01 08:05 48.62653 11.40132 12583 ft 363 kts 262°